Location: Rayville (historical)
(39.9992°N, 99.6815°W)
Time: 15:06:45
(UTC+00:00)

Cosmos 2221 - Pass Details

Date: 18 February 2020
Orbit: 593 x 615 km, 82.5° (Epoch: 27 March)

Event Time Altitude Azimuth Distance (km) Brightness Sun altitude
Exits shadow 10:54:40 - 154° (SSE) 2,147 5.5 -30.0°
Reaches altitude 10° 10:55:17 10° 150° (SSE) 1,924 5.3 -29.9°
Maximum altitude 10:58:58 29° 90° (E) 1,100 4.4 -29.2°
Drops below altitude 10° 11:02:41 10° 30° (NNE) 1,945 5.5 -28.5°
Sets 11:05:07 0° 19° (NNE) 2,856 6.3 -28.0°
